KUIPER-00204

导读 | 豆包AI

KUIPER-00204是美国亚马逊柯伊伯(Project Kuiper)低轨宽带星座的卫星,于2025年12月15日发射升空。该星座计划部署超3200颗低轨卫星,旨在为全球包括未覆盖和服务不足地区提供高速稳定的宽带互联网接入服务。这颗卫星加入星座网络后,将进一步推进全球卫星互联网组网进程,拓展太空互联网覆盖范围。

Basic Information
目录编号:
67145
目录名称:
KUIPER-00204
国际标识:
2025-301N
轨道中心:
EARTH
卫星名称:
KUIPER-00204
卫星全名:
KUIPER-00204
卫星状态:
在轨 (已飞行161 天)
发射日期:
2025-12-15 UTC
国别 :
美国 (US)
星等 :
--
Orbit Information
数据来源 国际轨道数据
星历时间: 2026-05-24T12:00:02+0800
1天前
查看轨道信息
半长轴: 6932.267km
偏心率: 0.0001418
轨道倾角: 51.897°
近地点辐角 11.176°
升交点赤经 72.781°
平近点角 152.621°
近地点: 553.147km
远地点: 555.113km
周期: 95.735分钟
每日圈数: 15.041457
Detailed Information
使用方式:
暂无
2D Orbit Map
3D Orbit Map
Orbit Altitude Analysis Chart
Orbit Inclination Analysis Chart
Orbit Comprehensive Analysis Chart
View Comprehensive Chart